Theta_e
285 285 285 286 286 287 287 288 288 288 288 288 288 287 286 286 287 287 288 288 289 289 289 289 290 290 290 290 290 290 289 289 289 289 289 289 289 289 289 288 288 288 287 287 287 287 286 286 285 285 285 284 284 284 284 284 283 282 282 283 282 282
284 285 285 285 285 286 287 287 288 287 288 288 288 289 289 288 287 286 286 287 287 288 288 288 289 289 289 289 289 289 288 289 288 288 288 288 288 288 288 288 288 287 287 287 287 286 286 285 285 285 284 284 283 283 283 283 282 282 282 282 282 281
284 285 285 285 285 286 286 287 287 287 288 288 288 288 288 288 288 288 287 287 286 286 287 287 288 288 288 288 289 289 289 288 288 288 288 288 287 288 287 287 288 288 287 287 287 286 286 285 284 284 284 283 283 283 283 282 281 281 281 281 280 281
284 284 285 285 285 285 285 286 286 286 286 287 287 288 288 288 288 287 287 287 286 286 286 286 286 287 287 287 287 288 288 288 288 288 287 287 288 287 287 287 287 287 287 286 286 286 286 285 285 284 284 283 282 282 282 282 281 281 281 281 280 280
283 283 284 284 284 284 285 285 285 286 286 286 287 287 287 288 287 287 287 287 286 286 286 285 286 286 286 286 286 287 287 288 288 288 287 287 288 288 287 287 287 287 286 286 286 286 285 285 284 284 283 283 282 282 282 282 281 280 280 280 280 279
283 283 283 283 283 284 284 284 285 285 285 286 286 286 287 287 287 287 287 287 286 286 286 286 286 285 285 285 286 286 287 287 288 287 287 288 288 287 287 287 287 286 286 286 285 285 285 284 284 284 283 283 283 282 282 282 281 281 281 280 280 279
282 282 283 283 283 283 283 284 284 284 285 285 285 285 286 287 287 286 286 286 286 286 286 286 286 286 286 286 286 286 287 287 288 288 287 287 287 287 287 286 286 286 286 285 285 285 285 285 284 283 283 283 283 283 282 282 281 281 281 281 280 280
283 282 282 282 282 283 283 283 284 284 284 284 285 285 285 286 286 285 285 285 285 285 285 286 286 286 286 286 286 286 286 287 287 287 287 287 286 287 286 285 285 285 285 286 286 286 285 285 285 284 283 283 283 283 283 282 282 281 281 281 281 280
282 282 282 282 282 282 283 283 283 283 283 284 284 285 285 285 285 285 285 285 284 284 285 285 285 285 285 285 286 286 286 286 286 287 287 287 287 287 286 286 285 285 286 286 286 285 285 285 285 284 284 283 283 283 282 282 282 281 281 281 281 280
282 282 282 282 282 282 282 283 283 283 283 283 284 284 284 285 284 284 284 284 284 284 284 285 285 285 285 285 285 285 286 286 286 286 287 287 287 286 286 286 285 285 285 285 285 285 285 285 285 284 284 284 283 283 282 282 282 281 281 280 280 280
282 282 282 282 282 282 282 283 283 283 283 283 284 284 284 284 283 283 283 283 283 284 284 284 285 285 285 285 285 285 285 285 286 286 286 286 286 286 286 286 286 286 285 285 285 285 285 285 284 284 284 283 283 282 282 282 282 281 280 280 280 280
283 283 283 282 282 282 282 282 282 282 282 283 283 283 284 284 283 283 283 283 283 283 284 284 284 284 284 284 284 284 285 285 285 285 285 285 286 286 286 286 286 285 285 285 285 284 284 284 285 285 286 286 283 282 282 282 281 281 281 280 279 279
283 282 282 282 282 281 282 282 282 282 282 282 282 283 284 284 283 283 283 283 283 283 283 283 283 283 283 283 284 284 284 284 284 284 284 284 285 285 285 285 285 285 285 285 284 284 284 284 284 286 287 287 287 283 282 281 281 281 280 280 279 279
282 282 282 281 281 280 281 282 282 282 282 283 283 284 284 284 284 283 283 283 283 283 283 283 283 282 282 282 282 283 283 283 283 284 284 284 284 284 284 284 284 284 284 284 284 284 284 284 285 287 287 288 287 286 283 282 281 281 280 280 279 279
281 281 281 280 281 281 281 282 282 282 283 283 283 284 283 283 283 283 283 283 283 283 283 282 282 281 281 281 282 282 282 282 283 283 283 283 284 284 283 284 284 284 284 284 284 284 284 284 286 287 288 288 288 287 285 282 282 281 280 280 279 279
281 280 280 281 281 281 281 282 282 282 283 282 283 283 283 283 282 283 283 283 283 283 283 282 282 281 281 281 281 281 281 281 281 282 283 283 283 283 283 283 283 283 283 283 283 283 284 284 285 287 287 288 288 288 286 282 281 281 280 280 279 279
280 280 280 280 281 281 281 281 281 281 281 282 282 282 282 282 281 281 282 282 282 282 282 282 282 281 281 281 281 280 280 280 281 282 282 283 282 282 283 283 283 283 283 283 283 283 283 283 286 286 287 288 288 288 287 283 282 281 280 280 279 279
280 280 280 281 281 280 280 280 280 280 280 280 280 280 280 280 279 280 280 281 281 281 282 282 281 281 280 280 280 280 281 281 281 281 282 282 282 282 282 282 282 282 283 283 283 282 282 283 286 286 287 287 288 288 286 284 282 280 280 279 279 279
281 280 280 280 280 280 280 280 280 279 279 278 278 278 278 278 278 278 279 279 280 280 280 280 280 280 280 280 279 279 280 280 280 281 281 280 281 281 281 281 282 282 282 282 282 282 282 282 284 286 286 287 288 287 285 284 282 281 279 279 279 278
280 279 279 279 280 280 280 279 278 277 277 277 277 277 277 277 277 278 278 278 278 279 279 280 280 280 280 280 279 280 281 281 281 281 281 280 279 280 280 281 281 281 281 281 281 281 281 282 283 285 286 286 287 287 285 284 282 280 279 278 278 277
279 279 279 278 278 279 279 277 276 276 277 277 277 276 276 276 276 277 277 278 278 277 277 278 278 279 279 279 280 280 279 279 280 280 279 279 279 279 280 280 279 279 280 280 280 281 281 281 282 284 285 286 286 286 285 283 282 280 278 277 276 276
278 277 278 278 278 279 277 277 277 276 277 277 276 275 275 276 276 277 277 277 276 276 275 276 276 277 278 279 279 279 279 279 279 279 279 279 279 278 279 278 278 278 278 279 279 279 279 280 281 281 284 285 286 287 285 283 281 279 278 277 276 274
277 277 277 278 278 277 277 276 275 276 276 276 275 275 275 276 276 276 275 275 274 273 273 274 275 275 276 277 277 277 278 279 279 279 278 278 278 277 277 277 277 277 277 278 278 277 278 278 279 279 282 284 285 286 286 283 280 279 278 276 275 275
275 275 275 276 276 276 275 274 274 275 275 274 274 274 275 275 275 274 273 272 272 272 272 272 273 274 274 274 275 275 276 277 278 278 278 278 277 276 276 276 276 276 276 277 276 276 276 277 279 278 280 282 284 285 287 284 281 280 278 276 275 275
274 275 275 276 275 275 275 272 272 273 273 273 273 274 273 274 272 271 271 270 270 270 271 271 271 272 272 272 273 273 273 274 275 276 277 277 276 276 275 275 276 275 275 275 276 275 275 275 276 279 278 280 282 284 286 286 283 282 278 276 275 274
273 273 274 274 274 274 273 271 271 272 271 272 274 273 272 270 270 269 269 269 269 269 269 269 270 270 270 270 271 271 271 271 273 275 276 276 276 276 275 276 275 275 274 274 275 275 275 275 275 277 279 279 281 283 285 286 286 283 279 277 276 276
271 272 272 272 272 272 272 271 270 270 270 271 272 270 269 268 268 267 267 267 267 267 267 267 267 267 268 268 269 269 270 270 272 273 274 275 275 275 275 275 275 275 275 275 274 275 275 274 274 274 276 279 280 281 283 285 286 284 282 277 276 277
269 269 269 270 270 270 270 270 269 268 269 271 270 269 267 266 265 265 265 265 265 265 266 265 265 266 266 267 268 268 269 269 270 271 273 274 275 275 275 275 275 275 275 274 275 275 275 274 274 274 274 276 278 280 281 283 285 284 283 280 277 278
267 267 267 267 268 269 269 268 269 269 269 268 268 267 265 264 264 264 264 264 264 264 264 264 264 264 265 265 266 267 268 269 270 271 272 273 274 274 274 275 275 275 275 274 274 275 275 274 274 273 273 274 275 277 278 279 281 284 283 280 278 278
266 265 265 266 267 267 267 267 267 267 267 266 266 264 263 262 263 262 262 262 262 262 262 262 264 264 263 264 265 266 267 268 269 270 271 272 273 273 274 274 274 274 275 275 275 275 274 274 274 273 273 273 274 275 277 278 279 281 281 279 277 277
264 264 264 264 265 265 265 264 264 265 264 264 263 261 261 261 261 261 260 261 261 261 262 262 262 262 262 263 264 265 266 267 268 269 270 272 274 274 274 274 275 275 276 276 275 275 274 274 274 274 276 274 276 275 275 276 277 280 281 280 279 276
262 261 261 261 262 261 261 261 261 262 262 261 261 260 259 259 259 259 259 259 260 260 260 260 261 261 262 263 263 264 265 269 272 271 270 270 274 277 278 279 276 276 276 276 276 277 275 275 276 278 279 279 279 279 279 279 280 281 281 281 281 277
258 258 258 258 259 258 258 258 258 259 259 259 259 259 258 258 258 258 258 258 258 259 259 260 260 260 261 261 261 262 262 262 264 270 272 273 273 274 276 277 279 280 281 279 277 278 281 281 281 280 279 280 280 280 280 280 281 282 282 282 278 275
256 256 256 257 257 256 256 256 257 257 257 258 258 258 257 257 257 257 257 257 258 258 259 259 259 259 259 260 260 261 261 261 261 262 268 271 272 273 274 276 277 279 280 281 281 280 278 280 281 281 280 280 280 280 281 281 281 282 283 282 281 274
256 256 256 256 255 256 256 256 256 257 257 258 258 257 257 257 257 256 257 257 257 258 258 258 259 259 259 259 259 260 261 260 261 260 261 265 271 273 274 276 277 278 279 280 281 282 282 281 280 281 281 280 280 281 281 281 282 282 283 282 277 273
255 255 255 255 255 255 256 256 256 257 257 257 257 257 256 256 256 256 256 257 257 257 257 258 258 259 259 260 260 260 261 261 262 262 263 263 265 268 272 275 276 277 278 279 281 281 282 282 282 281 281 281 280 281 281 281 280 282 283 281 276 274
255 255 255 256 256 256 255 255 256 257 257 257 257 257 256 256 256 256 257 258 258 258 258 259 259 259 260 260 260 260 261 261 262 263 264 265 265 266 268 269 271 275 277 276 277 279 281 282 282 282 281 281 281 281 281 281 278 277 278 279 276 274
255 255 255 255 255 255 255 255 256 257 256 257 257 256 256 256 256 256 257 257 258 258 258 259 259 259 259 259 259 260 260 261 261 261 262 262 263 263 264 267 270 273 275 277 277 278 280 281 282 282 281 280 281 281 281 277 276 276 277 277 275 274
Wind_Speed
12 11 11 11 11 11 11 11 12 14 15 15 13 13 10 9 7 6 5 4 4 4 5 6 7 7 7 7 7 7 8 9 8 9 10 7 9 10 9 9 9 10 11 11 11 9 10 9 9 8 8 8 8 8 8 8 9 9 10 8 9 8
9 9 10 11 12 12 11 11 11 14 11 13 14 14 14 14 14 10 9 7 5 6 5 6 7 7 8 8 8 8 9 9 9 10 10 11 9 10 10 9 10 11 10 10 10 11 10 10 9 9 9 8 9 8 9 9 10 10 10 9 8 7
6 7 7 6 6 8 10 11 12 11 12 14 15 16 17 18 15 13 10 8 8 7 8 8 7 9 8 8 8 9 9 8 8 9 10 8 10 10 10 10 11 10 10 10 11 11 11 11 11 10 9 10 10 9 9 8 11 12 10 9 10 9
5 4 5 6 9 10 12 10 10 15 16 15 16 16 16 15 15 13 13 11 9 9 9 9 8 8 7 8 8 9 9 8 8 9 7 10 10 10 12 13 12 10 11 11 11 11 10 11 11 11 11 11 11 11 8 9 11 11 11 10 11 11
12 13 16 18 17 17 17 17 17 17 17 16 14 15 15 13 12 11 10 10 10 10 9 8 8 7 8 8 8 9 9 9 9 8 10 11 10 10 11 11 10 12 12 14 12 10 11 11 11 10 11 12 12 12 11 13 11 12 12 13 13 11
11 14 16 16 16 16 16 14 13 12 12 12 11 13 13 12 12 10 10 9 10 9 9 9 9 9 8 8 8 9 10 10 9 9 10 11 9 10 9 10 12 12 12 14 14 14 14 14 14 14 15 17 17 17 17 16 15 15 15 13 11 12
15 13 11 11 11 11 11 12 12 12 12 11 11 11 10 10 10 10 10 10 11 11 11 11 10 9 10 9 8 10 10 10 10 9 10 10 10 10 9 9 10 12 13 13 14 15 15 16 15 16 16 15 15 16 16 16 16 16 16 17 16 14
8 10 10 9 9 9 10 10 10 10 10 12 10 11 10 10 9 10 10 11 12 12 13 12 12 12 12 11 10 10 9 9 9 10 9 9 11 10 10 10 10 11 13 14 14 14 15 15 15 16 16 16 15 15 15 15 15 16 16 16 16 17
11 9 9 9 8 8 8 8 9 9 9 9 9 10 10 10 10 11 10 10 11 12 13 13 13 12 11 11 11 10 9 9 9 9 10 9 11 11 10 10 11 11 13 14 13 14 14 14 15 16 16 16 16 16 16 16 16 16 15 15 16 16
9 9 8 8 8 7 7 6 6 7 8 10 10 9 9 8 10 10 10 10 10 10 11 11 11 11 11 10 10 10 10 9 9 9 8 8 9 10 11 11 12 12 12 13 13 13 12 14 15 15 16 15 16 15 16 16 16 16 15 15 15 15
8 10 10 9 8 8 7 6 6 6 5 5 7 7 9 7 8 8 8 8 9 9 9 9 9 9 10 10 10 11 11 11 10 9 8 8 8 8 9 10 11 12 12 12 12 12 12 13 15 14 14 15 15 15 16 16 16 16 16 16 15 12
6 7 8 10 10 11 10 8 7 7 7 8 8 8 8 6 8 8 9 8 8 8 8 8 8 9 9 10 11 11 11 11 10 9 8 8 9 8 8 9 10 11 12 12 12 12 12 13 12 14 20 15 14 15 14 13 15 16 15 14 11 10
6 6 6 7 7 8 8 8 7 7 7 7 7 8 8 7 8 8 8 9 8 8 8 8 9 9 11 10 10 9 10 11 10 10 9 8 8 8 8 9 10 10 10 12 12 13 13 13 12 17 18 22 21 15 14 14 14 14 15 16 17 14
6 7 7 7 7 6 6 6 6 6 7 7 8 7 7 6 7 8 8 8 8 8 9 9 9 10 10 10 11 11 10 9 10 10 10 9 9 8 6 8 10 10 10 10 12 13 13 13 14 17 20 22 23 20 15 13 13 13 15 15 15 10
7 7 7 6 7 6 6 6 5 6 5 7 8 7 7 7 7 7 8 8 7 8 8 8 8 8 9 9 9 9 9 10 10 11 11 11 9 8 8 9 8 10 10 11 12 13 13 13 12 18 20 21 23 25 19 13 13 13 15 16 13 11
6 6 7 7 7 7 6 5 5 6 5 5 6 7 8 8 8 7 8 7 6 8 8 8 8 8 9 8 8 8 9 9 10 10 9 8 8 8 9 8 9 9 9 10 12 13 13 13 13 18 20 21 23 24 21 14 14 14 14 16 14 10
8 7 7 7 7 6 5 5 5 5 5 5 7 7 7 7 8 7 8 6 7 7 8 8 8 9 9 9 9 8 8 8 9 10 9 9 9 9 10 9 9 9 9 10 10 11 12 12 13 17 20 21 23 24 21 14 13 13 13 14 14 12
8 7 8 6 5 7 5 6 5 5 7 6 7 8 6 6 7 7 8 6 5 6 7 8 9 9 9 9 9 9 10 9 8 9 9 8 8 7 7 8 8 10 11 11 10 11 13 11 12 16 19 21 22 24 15 13 14 14 13 13 13 10
8 8 7 8 8 8 8 6 6 6 7 6 6 6 6 6 7 7 8 7 8 7 7 8 9 9 9 8 9 9 10 10 11 10 7 7 7 8 9 9 9 9 9 11 10 11 12 11 11 16 18 20 22 19 13 13 12 13 13 13 11 8
8 7 8 10 11 10 7 6 6 6 7 8 8 6 8 7 9 9 7 8 7 9 9 9 10 11 11 10 9 10 10 9 8 9 7 8 10 9 8 7 8 9 9 10 12 11 12 12 9 14 17 20 22 18 14 12 12 13 13 12 10 6
8 8 8 8 11 11 7 7 6 7 8 9 9 7 9 9 9 9 9 9 8 8 9 9 11 12 12 12 11 10 11 11 9 9 7 7 8 9 9 7 7 9 8 9 11 12 13 12 10 14 17 20 22 19 13 12 11 12 12 10 10 8
5 8 10 11 12 9 8 7 7 8 11 11 9 9 11 9 9 9 8 8 8 7 8 9 11 12 13 13 13 13 12 11 10 9 9 8 7 8 8 7 7 10 10 9 9 10 10 12 10 9 17 19 22 24 15 11 11 13 12 10 9 10
5 8 11 11 11 9 8 7 7 10 11 11 10 13 12 9 9 9 7 7 8 8 9 9 10 12 13 12 13 14 13 11 11 11 10 10 9 8 9 9 9 9 10 9 8 9 10 10 11 10 16 19 22 25 24 12 14 13 11 10 11 9
8 9 11 11 11 9 7 6 9 11 12 11 14 14 9 9 9 7 6 8 9 9 10 11 11 11 11 13 13 14 15 14 13 12 12 10 9 10 11 11 9 9 10 9 8 9 10 9 13 10 13 20 23 25 29 17 14 13 11 12 12 9
11 12 13 13 11 9 7 6 10 12 13 14 17 11 7 8 6 7 8 10 11 12 12 12 12 12 11 12 13 14 16 16 15 15 13 12 12 11 12 11 10 9 10 10 9 8 9 9 9 15 12 18 23 26 28 28 16 19 14 13 13 13
11 13 13 13 12 10 8 7 11 13 15 17 13 8 8 6 7 8 10 12 12 13 13 12 12 12 12 13 13 14 16 17 16 14 12 12 11 11 11 11 9 8 10 11 11 9 8 8 8 11 18 16 23 26 28 30 25 22 14 13 12 13
12 13 15 15 14 12 10 8 11 15 18 16 9 8 8 8 9 10 12 13 14 14 13 13 13 14 13 13 12 14 14 16 15 14 13 11 11 11 11 12 10 10 10 10 11 11 8 7 8 7 13 21 22 25 27 28 29 24 23 15 11 11
11 13 15 18 16 15 11 11 10 15 16 12 9 9 8 9 11 13 14 15 14 15 15 16 17 16 14 14 12 13 13 14 15 14 14 13 12 12 11 12 11 10 11 11 11 11 10 8 7 9 9 12 17 18 24 28 28 27 27 21 14 17
13 15 16 17 17 14 12 12 12 13 12 11 11 9 9 10 13 15 15 16 15 15 15 16 14 15 15 15 13 12 13 13 13 14 14 13 13 12 12 12 12 11 11 12 12 11 10 8 9 9 9 9 9 11 12 15 18 23 24 18 13 15
15 16 15 17 16 15 13 14 14 13 12 11 10 9 10 13 14 15 16 18 16 15 15 15 17 18 15 15 13 13 13 13 13 14 14 14 13 12 13 12 12 12 12 12 12 10 9 10 10 10 10 10 11 11 11 11 12 12 12 13 12 12
16 15 18 16 16 13 15 14 13 12 13 10 10 11 14 16 18 18 19 18 16 17 15 14 14 14 14 15 15 13 14 13 14 14 15 16 13 13 13 13 14 14 13 12 12 11 11 11 12 13 13 13 16 13 11 11 12 12 12 13 14 11
14 17 19 21 17 18 16 16 14 14 13 13 11 14 15 18 18 19 19 17 16 16 15 13 12 12 11 12 11 13 14 18 25 20 17 17 22 29 30 24 18 16 13 12 13 12 14 14 13 10 17 21 22 24 24 20 19 18 12 16 26 16
19 21 20 19 17 17 18 19 17 16 16 14 15 16 17 16 16 17 18 16 15 15 14 12 10 11 9 11 10 12 14 17 17 26 32 32 32 32 33 33 35 37 33 22 16 15 22 24 20 14 19 23 24 26 26 25 24 25 23 24 20 16
19 17 19 17 18 18 17 17 17 14 15 14 14 15 15 16 14 16 17 16 15 14 15 12 14 13 12 12 12 14 14 15 18 20 23 28 31 32 33 34 35 35 33 34 30 22 13 18 25 25 21 23 25 26 26 25 25 27 26 28 29 15
14 16 13 17 16 18 17 18 15 15 13 14 14 14 16 16 16 18 18 16 15 14 15 17 15 15 14 15 15 15 14 15 15 17 18 16 21 27 28 27 29 31 31 32 32 33 28 20 16 24 25 24 25 26 26 26 27 27 29 31 21 16
14 14 18 16 20 17 18 18 18 14 17 14 15 15 17 15 16 15 14 13 13 14 12 13 14 14 15 14 15 15 15 16 16 16 16 17 16 15 18 23 27 28 30 29 29 29 29 29 28 25 25 26 25 26 26 25 20 27 29 27 17 15
16 16 15 19 19 18 18 18 17 17 14 16 16 17 16 16 14 15 16 25 23 15 14 13 13 13 14 14 14 15 16 17 16 16 16 14 14 14 14 11 11 16 21 19 20 24 28 28 27 26 24 25 25 25 25 25 15 16 16 19 15 14
15 16 16 16 17 17 18 19 16 16 15 16 16 16 16 14 13 13 14 13 16 15 14 12 10 12 14 16 16 17 17 17 16 16 16 15 15 16 17 17 13 9 11 21 22 25 26 26 27 25 25 23 25 24 25 15 13 13 13 14 13 13
Wind_Direction
15 13 11 10 17 17 20 18 17 19 18 12 15 14 5 353 347 349 332 313 279 257 256 257 256 245 242 236 227 214 212 212 206 207 215 207 201 201 195 194 194 194 198 199 202 198 204 201 205 200 202 198 202 199 200 186 186 191 194 188 184 182
15 15 16 17 17 17 14 18 21 24 20 19 13 9 11 14 17 2 342 324 305 287 276 262 251 249 242 237 231 226 220 213 208 210 210 212 201 205 198 198 199 197 195 197 196 198 196 197 196 193 198 196 207 196 198 190 183 194 195 187 188 175
22 25 27 30 29 29 25 23 20 18 19 21 18 16 11 11 6 4 353 335 315 301 285 273 263 257 250 249 240 242 241 233 222 220 219 203 211 201 202 203 201 198 199 197 202 199 195 191 190 189 190 197 203 204 201 185 191 192 195 178 186 185
31 38 36 37 33 28 25 20 21 23 23 18 15 13 15 8 2 359 349 345 337 322 304 293 280 266 263 253 248 244 244 238 232 230 222 219 220 204 211 209 206 202 200 201 205 204 199 198 194 186 188 196 196 201 199 200 191 195 192 183 188 187
14 14 17 18 19 17 18 18 19 16 15 15 12 11 6 3 356 352 350 349 346 338 325 310 293 282 271 262 258 254 249 246 241 228 226 228 225 216 215 211 206 205 204 209 209 203 203 201 198 195 194 197 196 199 201 204 193 196 189 191 193 183
14 20 18 16 14 13 12 12 14 14 14 13 9 8 1 358 357 351 353 356 358 354 345 335 320 304 287 272 266 261 258 252 249 236 236 236 231 225 217 214 212 208 207 211 210 208 209 206 206 205 206 207 203 204 205 204 204 204 206 201 184 178
16 15 14 14 12 10 10 9 8 8 6 7 8 3 356 356 353 352 353 355 358 3 7 2 351 336 313 297 284 272 265 259 254 247 240 238 238 232 222 217 211 213 212 213 211 209 209 207 204 207 209 209 208 208 206 205 205 207 209 206 202 193
5 10 9 9 9 9 5 4 2 2 1 359 359 358 355 352 352 350 352 355 359 0 2 1 0 355 345 326 310 292 279 268 259 252 248 239 241 236 227 220 212 215 217 216 215 213 213 209 206 210 210 208 207 208 209 208 207 208 208 207 206 200
4 358 3 2 1 3 1 358 356 354 354 352 354 352 350 347 350 349 352 354 358 358 358 357 355 352 349 342 331 319 304 288 271 258 253 242 240 239 233 225 220 219 221 220 216 217 213 211 211 211 211 210 207 206 206 207 208 209 209 213 209 206
346 352 352 352 353 351 350 352 347 347 347 347 346 346 348 345 346 345 346 348 353 357 353 351 345 348 345 341 337 330 322 309 296 278 264 254 248 241 236 232 226 226 222 224 220 220 215 215 216 216 213 211 208 206 209 207 206 206 208 212 211 209
332 334 338 338 340 345 348 345 347 341 337 338 337 337 337 335 337 338 339 340 346 347 343 338 340 340 341 342 344 343 338 330 316 302 287 269 258 248 241 239 235 232 228 227 224 222 216 219 219 216 211 210 209 209 210 209 207 206 206 208 210 209
317 315 322 330 335 339 340 343 340 337 336 336 337 335 328 336 335 337 336 336 333 333 332 333 333 337 337 344 347 344 341 337 330 320 310 293 273 264 253 247 239 235 233 230 227 223 221 224 224 219 214 206 207 206 208 209 210 208 208 205 202 201
298 302 301 304 313 315 321 325 323 325 323 322 327 324 320 329 326 330 327 324 322 323 326 331 336 336 342 344 342 344 345 342 336 329 318 306 293 279 267 251 249 243 237 234 230 227 226 227 226 220 211 211 206 202 207 207 210 208 208 210 208 206
277 286 288 289 288 291 298 302 307 315 319 321 324 317 311 311 313 316 315 310 312 320 326 330 333 338 338 341 342 341 340 336 335 331 324 318 309 294 279 265 253 249 243 240 238 234 233 232 228 218 214 210 208 203 205 208 210 208 211 211 211 207
265 265 274 273 275 281 282 285 293 302 300 316 311 316 312 309 307 304 303 301 306 317 320 323 330 330 332 333 332 331 334 335 334 333 330 324 314 307 293 276 265 256 250 242 242 241 238 239 221 218 215 211 209 206 201 212 210 210 212 212 209 204
258 260 261 268 270 266 270 271 273 277 284 291 303 307 307 308 309 306 304 301 307 314 320 322 326 326 325 324 324 327 328 332 330 324 319 313 314 309 298 288 274 266 256 248 245 246 244 240 234 223 218 213 210 209 203 213 210 213 215 213 210 201
262 263 265 268 266 270 280 286 279 288 294 297 302 301 297 300 298 299 295 295 301 310 317 321 321 321 321 321 321 321 319 318 318 322 322 322 317 312 304 298 290 274 263 258 251 251 248 243 231 224 220 215 211 211 206 211 214 216 218 218 215 209
264 274 284 279 278 277 274 276 282 291 289 296 298 296 295 293 297 293 291 292 299 308 314 316 315 314 313 313 315 316 316 316 313 314 314 315 310 301 293 288 280 277 271 261 255 254 253 247 227 226 223 219 215 211 210 212 214 218 218 217 215 207
275 280 288 292 287 285 283 283 284 281 282 286 279 280 282 287 287 292 294 296 304 312 313 313 310 307 306 305 305 304 305 309 311 308 304 298 295 297 296 291 282 277 274 269 261 256 257 255 233 229 223 218 217 211 214 214 215 220 219 218 212 198
279 282 283 288 288 282 281 282 278 279 283 285 287 288 291 290 292 294 295 296 306 313 317 316 313 310 307 303 298 297 296 294 289 290 297 296 299 295 283 279 282 277 272 268 266 257 261 261 241 232 230 222 216 211 213 214 216 219 219 218 206 192
265 276 285 281 281 283 287 286 284 284 281 282 286 286 287 289 292 296 299 303 308 315 316 317 314 310 306 303 300 300 299 295 290 286 279 272 272 276 285 282 277 274 266 262 260 263 260 262 254 237 234 227 221 216 215 216 218 220 218 212 210 206
294 296 290 287 284 289 295 298 299 290 290 292 295 292 286 290 290 289 290 294 304 309 312 311 310 306 303 304 305 306 299 295 293 287 285 278 268 274 275 270 265 270 271 261 258 256 252 258 255 238 236 230 225 219 214 214 215 220 215 205 205 202
277 276 280 283 289 296 297 302 300 292 289 293 294 286 288 292 290 294 291 298 301 304 304 304 302 301 301 302 303 302 299 294 290 289 286 285 284 276 273 270 267 263 266 259 252 254 251 247 251 242 232 234 230 225 220 216 216 215 206 205 204 204
297 291 287 282 285 288 292 294 289 285 288 289 283 282 302 293 294 297 300 301 300 301 300 299 299 297 298 301 302 302 299 297 294 291 289 284 278 275 273 275 271 268 269 269 250 249 251 242 237 242 233 233 234 231 225 222 217 204 200 201 209 203
299 293 290 292 292 291 289 293 285 284 284 282 279 296 299 291 300 301 302 301 300 298 297 295 295 295 296 296 298 299 296 296 296 291 285 281 280 275 273 267 264 263 266 268 260 248 245 241 238 235 233 231 233 234 233 228 214 202 198 203 206 206
293 291 291 291 291 293 294 291 285 283 284 279 290 303 292 299 301 301 301 297 295 297 294 294 293 289 289 290 292 293 290 289 289 287 282 280 275 275 271 271 263 256 259 261 264 254 242 236 234 234 232 230 231 235 236 235 219 197 198 203 210 206
294 296 294 293 295 293 293 286 283 284 281 284 304 295 301 304 303 301 296 295 294 293 293 294 290 288 288 286 285 284 284 284 284 285 283 278 273 267 267 268 263 257 259 260 258 260 249 232 229 228 232 231 231 232 236 237 232 206 195 198 209 199
297 295 293 294 294 295 296 290 282 281 282 295 301 303 306 307 303 298 293 292 291 290 293 292 290 287 284 283 279 275 275 277 280 279 280 278 270 266 264 266 265 258 256 256 258 256 251 236 223 232 227 228 233 233 235 236 239 224 206 194 194 194
305 299 297 295 294 298 299 293 289 283 292 297 304 308 309 304 298 293 292 289 290 290 288 286 287 289 288 284 282 276 272 271 270 269 270 269 268 266 263 262 262 260 255 253 252 252 248 237 229 228 221 219 224 228 229 233 241 235 217 205 193 188
302 300 299 295 295 300 299 296 294 297 302 305 309 314 311 301 295 293 291 289 288 286 285 284 283 283 283 281 279 279 277 271 268 269 267 267 266 264 263 258 257 254 252 253 251 250 243 238 231 222 214 211 213 221 219 224 227 230 210 203 190 181
307 303 302 296 303 307 306 303 304 308 313 316 319 315 307 298 294 290 287 285 285 281 281 279 278 277 279 278 276 268 267 270 272 270 271 264 262 261 263 265 261 255 251 249 249 245 244 243 235 226 209 208 207 207 212 215 217 219 214 196 177 165
311 310 307 304 308 307 304 305 306 310 313 313 309 305 295 293 292 288 283 282 279 279 280 278 276 273 273 275 277 281 278 271 273 275 275 277 272 268 266 264 262 257 255 252 247 234 240 243 241 226 211 214 214 217 215 216 215 217 207 188 182 165
310 308 304 305 309 305 305 302 302 303 301 298 294 292 286 284 284 282 281 281 278 277 278 277 277 277 274 276 278 280 282 287 280 271 272 273 274 275 273 270 267 266 261 255 255 245 237 243 245 221 208 213 217 217 217 218 218 218 212 186 177 174
308 305 302 301 299 295 295 293 292 292 290 286 282 279 277 276 274 279 280 280 280 279 278 276 277 278 274 272 271 272 274 276 282 284 271 267 269 269 267 267 266 264 262 259 255 254 245 240 244 240 228 220 219 217 216 216 217 219 214 193 178 180
299 298 293 294 291 293 292 291 289 289 283 281 278 277 276 272 271 274 277 277 277 275 275 276 275 276 276 277 277 275 272 271 274 276 285 281 269 269 268 265 263 262 262 260 257 254 252 243 228 233 232 226 223 217 216 215 216 218 217 195 185 188
293 292 295 292 292 289 291 291 291 288 285 284 281 279 276 273 272 268 271 275 272 271 268 267 268 269 270 270 272 273 274 272 271 271 274 282 287 280 266 259 262 265 265 264 260 257 252 249 241 229 226 226 224 219 217 215 217 218 219 199 194 189
295 294 292 293 295 295 293 292 292 291 287 285 283 280 279 275 270 272 269 271 275 272 271 267 267 268 270 273 273 273 273 272 272 275 275 274 278 283 285 283 264 259 261 262 263 260 257 249 246 233 225 224 220 219 217 215 215 214 223 204 195 192
292 293 293 294 296 295 295 293 293 294 293 290 289 285 284 280 275 274 274 274 271 269 269 269 271 272 271 269 266 264 263 261 260 260 261 268 271 272 276 282 280 273 253 258 260 262 260 254 245 240 225 221 219 218 213 211 207 214 214 204 194 189